Location: Fort Worth, Tx
(32.7431°N, 97.3695°W)
Time: 00:11:00
(UTC-04:00)

Vanguard 2 - Pass Details

Date: 29 February 2024
Orbit: 552 x 2916 km, 32.9° (Epoch: 24 April)

Event Time Altitude Azimuth Distance (km) Brightness Sun altitude
Rises 23:46:45 0° 282° (WNW) 5,145 12.3 -53.2°
Reaches altitude 10° 23:49:40 10° 281° (W) 4,417 11.7 -53.7°
Enters shadow 23:56:49 44° 270° (W) 3,017 10.4 -54.9°
